Location: Bakov nad Jizerou
(50.4784°N, 14.9394°E)
Time: 17:26:32
(UTC+00:00)

Cosmos 2322 - Pass Details

Date: 30 October 2021
Orbit: 841 x 854 km, 71.0° (Epoch: 04 December)

Event Time Altitude Azimuth Distance (km) Brightness Sun altitude
Rises 19:09:58 0° 246° (WSW) 3,418 7.4 -33.7°
Reaches altitude 10° 19:12:45 10° 258° (WSW) 2,485 6.7 -34.1°
Maximum altitude 19:17:38 28° 317° (NW) 1,541 5.5 -34.8°
Enters shadow 19:19:56 22° 353° (N) 1,793 5.6 -35.2°
